Time,TemperatureF,DewpointF,PressureIn,WindDirection,WindDirectionDegrees,WindSpeedMPH,WindSpeedGustMPH,Humidity,HourlyPrecipIn,Conditions,Clouds,dailyrainin,SolarRadiationWatts/m^2,SoftwareType,DateUTC
2013-04-29 00:03:00,52.0,52.0,-100.00,ESE,120,1.0,2.0,100,0.00,,,0.17,0.000000,,2013-04-29 04:03:00,
2013-04-29 00:43:00,54.0,51.0,-100.00,SE,145,5.0,7.0,91,0.00,,,0.17,0.000000,,2013-04-29 04:43:00,
2013-04-29 00:52:00,54.0,51.0,-100.00,SE,145,5.0,7.0,91,0.00,,,0.17,0.000000,,2013-04-29 04:52:00,
2013-04-29 01:02:00,54.0,51.0,-100.00,SE,145,5.0,7.0,91,0.00,,,0.17,0.000000,,2013-04-29 05:02:00,
2013-04-29 01:12:00,54.0,51.0,-100.00,SE,145,5.0,7.0,91,0.00,,,0.17,0.000000,,2013-04-29 05:12:00,
2013-04-29 01:32:00,54.0,49.0,-100.00,SSE,158,7.0,11.0,84,0.01,,,0.18,0.000000,,2013-04-29 05:32:00,
2013-04-29 01:42:00,54.0,49.0,-100.00,SSE,158,7.0,11.0,84,0.01,,,0.18,0.000000,,2013-04-29 05:42:00,
2013-04-29 01:52:00,54.0,49.0,-100.00,SSE,158,7.0,11.0,84,0.01,,,0.18,0.000000,,2013-04-29 05:52:00,
2013-04-29 02:02:00,54.0,49.0,-100.00,SSE,158,7.0,11.0,84,0.01,,,0.18,0.000000,,2013-04-29 06:02:00,
2013-04-29 02:12:00,54.0,49.0,-100.00,SSE,158,7.0,11.0,84,0.01,,,0.18,0.000000,,2013-04-29 06:12:00,
2013-04-29 02:42:00,53.0,52.0,-100.00,SSE,151,5.0,11.0,95,0.00,,,0.18,0.000000,,2013-04-29 06:42:00,
2013-04-29 02:52:00,53.0,52.0,-100.00,SSE,151,5.0,11.0,95,0.00,,,0.18,0.000000,,2013-04-29 06:52:00,
2013-04-29 03:02:00,53.0,52.0,-100.00,SSE,151,5.0,11.0,95,0.00,,,0.18,0.000000,,2013-04-29 07:02:00,
2013-04-29 03:11:00,53.0,52.0,-100.00,SSE,151,5.0,11.0,95,0.00,,,0.18,0.000000,,2013-04-29 07:11:00,
2013-04-29 03:32:00,53.0,52.0,-100.00,SE,146,5.0,9.0,95,0.00,,,0.18,0.000000,,2013-04-29 07:32:00,
2013-04-29 03:42:00,53.0,52.0,-100.00,SE,146,5.0,9.0,95,0.00,,,0.18,0.000000,,2013-04-29 07:42:00,
2013-04-29 03:52:00,53.0,52.0,-100.00,SE,146,5.0,9.0,95,0.00,,,0.18,0.000000,,2013-04-29 07:52:00,
2013-04-29 04:03:00,53.0,52.0,-100.00,SE,146,5.0,9.0,95,0.00,,,0.18,0.000000,,2013-04-29 08:03:00,
2013-04-29 04:11:00,53.0,52.0,-100.00,SE,146,5.0,9.0,95,0.00,,,0.18,0.000000,,2013-04-29 08:11:00,
2013-04-29 04:42:00,53.0,53.0,-100.00,SE,141,4.0,9.0,100,0.00,,,0.18,0.000000,,2013-04-29 08:42:00,
2013-04-29 04:52:00,53.0,53.0,-100.00,SE,141,4.0,9.0,100,0.00,,,0.18,0.000000,,2013-04-29 08:52:00,
2013-04-29 05:01:00,53.0,53.0,-100.00,SE,141,4.0,9.0,100,0.00,,,0.18,0.000000,,2013-04-29 09:01:00,
2013-04-29 05:12:00,53.0,53.0,-100.00,SE,141,4.0,9.0,100,0.00,,,0.18,0.000000,,2013-04-29 09:12:00,
2013-04-29 05:42:00,53.0,53.0,-100.00,SE,137,5.0,8.0,100,0.00,,,0.18,0.000000,,2013-04-29 09:42:00,
2013-04-29 05:53:00,53.0,53.0,-100.00,SE,137,5.0,8.0,100,0.00,,,0.18,0.000000,,2013-04-29 09:53:00,
2013-04-29 06:02:00,53.0,53.0,-100.00,SE,137,5.0,8.0,100,0.00,,,0.18,0.000000,,2013-04-29 10:02:00,
2013-04-29 06:12:00,53.0,53.0,-100.00,SE,137,5.0,8.0,100,0.00,,,0.18,0.000000,,2013-04-29 10:12:00,
2013-04-29 06:32:00,53.0,53.0,-100.00,SE,143,4.0,7.0,100,0.00,,,0.18,0.000000,,2013-04-29 10:32:00,
2013-04-29 06:42:00,53.0,53.0,-100.00,SE,143,4.0,7.0,100,0.00,,,0.18,0.000000,,2013-04-29 10:42:00,
2013-04-29 06:52:00,53.0,53.0,-100.00,SE,143,4.0,7.0,100,0.00,,,0.18,0.000000,,2013-04-29 10:52:00,
2013-04-29 07:03:00,53.0,53.0,-100.00,SE,143,4.0,7.0,100,0.00,,,0.18,0.000000,,2013-04-29 11:03:00,
2013-04-29 07:12:00,53.0,53.0,-100.00,SE,143,4.0,7.0,100,0.00,,,0.18,0.000000,,2013-04-29 11:12:00,
2013-04-29 07:42:00,53.0,53.0,-100.00,SE,141,4.0,7.0,100,0.00,,,0.18,4.000000,,2013-04-29 11:42:00,
2013-04-29 07:52:00,53.0,53.0,-100.00,SE,141,4.0,7.0,100,0.00,,,0.18,4.000000,,2013-04-29 11:52:00,
2013-04-29 08:01:00,53.0,53.0,-100.00,SE,141,4.0,7.0,100,0.00,,,0.18,4.000000,,2013-04-29 12:01:00,
2013-04-29 08:12:00,53.0,53.0,-100.00,SE,141,4.0,7.0,100,0.00,,,0.18,4.000000,,2013-04-29 12:12:00,
2013-04-29 09:32:00,54.0,54.0,-100.00,ESE,122,2.0,6.0,100,-99.99,,,0.20,32.000000,,2013-04-29 13:32:00,
2013-04-29 09:42:00,54.0,54.0,-100.00,ESE,122,2.0,6.0,100,-99.99,,,0.20,32.000000,,2013-04-29 13:42:00,
2013-04-29 09:52:00,54.0,54.0,-100.00,ESE,122,2.0,6.0,100,-99.99,,,0.20,32.000000,,2013-04-29 13:52:00,
2013-04-29 10:02:00,54.0,54.0,-100.00,ESE,122,2.0,6.0,100,-99.99,,,0.20,32.000000,,2013-04-29 14:02:00,
2013-04-29 10:12:00,54.0,54.0,-100.00,ESE,122,2.0,6.0,100,-99.99,,,0.20,32.000000,,2013-04-29 14:12:00,
2013-04-29 10:42:00,54.0,54.0,-100.00,East,95,2.0,4.0,100,0.04,,,0.24,55.000000,,2013-04-29 14:42:00,
2013-04-29 10:52:00,54.0,54.0,-100.00,East,95,2.0,4.0,100,0.04,,,0.24,55.000000,,2013-04-29 14:52:00,
2013-04-29 11:01:00,54.0,54.0,-100.00,East,95,2.0,4.0,100,0.04,,,0.24,55.000000,,2013-04-29 15:01:00,
2013-04-29 11:12:00,54.0,54.0,-100.00,East,95,2.0,4.0,100,0.04,,,0.24,55.000000,,2013-04-29 15:12:00,
2013-04-29 11:13:00,55.0,55.0,-100.00,ESE,110,3.0,5.0,100,0.01,,,0.25,64.000000,,2013-04-29 15:13:00,
2013-04-29 11:33:00,55.0,55.0,-100.00,ESE,110,3.0,5.0,100,0.01,,,0.25,64.000000,,2013-04-29 15:33:00,
2013-04-29 11:43:00,55.0,55.0,-100.00,ESE,110,3.0,5.0,100,0.01,,,0.25,64.000000,,2013-04-29 15:43:00,
2013-04-29 11:53:00,55.0,55.0,-100.00,ESE,110,3.0,5.0,100,0.01,,,0.25,64.000000,,2013-04-29 15:53:00,
2013-04-29 12:03:00,55.0,55.0,-100.00,ESE,110,3.0,5.0,100,0.01,,,0.25,64.000000,,2013-04-29 16:03:00,
2013-04-29 12:33:00,56.0,56.0,-100.00,East,97,3.0,5.0,100,0.00,,,0.25,102.000000,,2013-04-29 16:33:00,
2013-04-29 12:42:00,56.0,56.0,-100.00,East,97,3.0,5.0,100,0.00,,,0.25,102.000000,,2013-04-29 16:42:00,
2013-04-29 12:52:00,56.0,56.0,-100.00,East,97,3.0,5.0,100,0.00,,,0.25,102.000000,,2013-04-29 16:52:00,
2013-04-29 13:02:00,56.0,56.0,-100.00,East,97,3.0,5.0,100,0.00,,,0.25,102.000000,,2013-04-29 17:02:00,
2013-04-29 13:12:00,56.0,56.0,-100.00,East,97,3.0,5.0,100,0.00,,,0.25,102.000000,,2013-04-29 17:12:00,
2013-04-29 13:13:00,57.0,57.0,-100.00,ESE,117,4.0,6.0,100,0.00,,,0.24,141.000000,,2013-04-29 17:13:00,
2013-04-29 13:32:00,57.0,57.0,-100.00,ESE,117,4.0,6.0,100,0.00,,,0.24,141.000000,,2013-04-29 17:32:00,
2013-04-29 13:42:00,57.0,57.0,-100.00,ESE,117,4.0,6.0,100,0.00,,,0.24,141.000000,,2013-04-29 17:42:00,
2013-04-29 13:52:00,57.0,57.0,-100.00,ESE,117,4.0,6.0,100,0.00,,,0.24,141.000000,,2013-04-29 17:52:00,
2013-04-29 14:01:00,57.0,57.0,-100.00,ESE,117,4.0,6.0,100,0.00,,,0.24,141.000000,,2013-04-29 18:01:00,
2013-04-29 14:42:00,59.0,59.0,-100.00,ESE,112,3.0,6.0,100,0.00,,,0.19,182.000000,,2013-04-29 18:42:00,
2013-04-29 14:52:00,59.0,59.0,-100.00,ESE,112,3.0,6.0,100,0.00,,,0.19,182.000000,,2013-04-29 18:52:00,
2013-04-29 15:01:00,59.0,59.0,-100.00,ESE,112,3.0,6.0,100,0.00,,,0.19,182.000000,,2013-04-29 19:01:00,
2013-04-29 15:12:00,59.0,59.0,-100.00,ESE,112,3.0,6.0,100,0.00,,,0.19,182.000000,,2013-04-29 19:12:00,
2013-04-29 16:43:00,60.0,60.0,-100.00,ENE,66,3.0,7.0,100,-99.99,,,0.11,94.000000,,2013-04-29 20:43:00,
2013-04-29 16:52:00,60.0,60.0,-100.00,ENE,66,3.0,7.0,100,-99.99,,,0.11,94.000000,,2013-04-29 20:52:00,
2013-04-29 17:02:00,60.0,60.0,-100.00,ENE,66,3.0,7.0,100,-99.99,,,0.11,94.000000,,2013-04-29 21:02:00,
2013-04-29 17:11:00,60.0,60.0,-100.00,ENE,66,3.0,7.0,100,-99.99,,,0.11,94.000000,,2013-04-29 21:11:00,
2013-04-29 18:32:00,60.0,59.0,-100.00,SE,143,6.0,11.0,95,-99.99,,,0.08,69.000000,,2013-04-29 22:32:00,
2013-04-29 18:42:00,60.0,59.0,-100.00,SE,143,6.0,11.0,95,-99.99,,,0.08,69.000000,,2013-04-29 22:42:00,
2013-04-29 18:53:00,60.0,59.0,-100.00,SE,143,6.0,11.0,95,-99.99,,,0.08,69.000000,,2013-04-29 22:53:00,
2013-04-29 19:02:00,60.0,59.0,-100.00,SE,143,6.0,11.0,95,-99.99,,,0.08,69.000000,,2013-04-29 23:02:00,
2013-04-29 19:12:00,60.0,59.0,-100.00,SE,143,6.0,11.0,95,-99.99,,,0.08,69.000000,,2013-04-29 23:12:00,
2013-04-29 19:42:00,60.0,58.0,-100.00,ESE,120,6.0,11.0,94,0.00,,,0.08,46.000000,,2013-04-29 23:42:00,
2013-04-29 19:53:00,60.0,58.0,-100.00,ESE,120,6.0,11.0,94,0.00,,,0.08,46.000000,,2013-04-29 23:53:00,
2013-04-29 20:01:00,60.0,58.0,-100.00,ESE,120,6.0,11.0,94,0.00,,,0.08,46.000000,,2013-04-30 00:01:00,
2013-04-29 20:11:00,60.0,58.0,-100.00,ESE,120,6.0,11.0,94,0.00,,,0.08,46.000000,,2013-04-30 00:11:00,